Location: Narrillos de San Leonardo
(40.6950°N, 4.7235°W)
Time: 17:32:21
(UTC+00:00)

Daily predictions for brighter satellites

Satellite Brightness Start Highest point End
(mag) Time Altitude Azimuth Time Altitude Azimuth Time Altitude Azimuth
IGS 5A 3.7 20:21:23 10° S 20:25:31 76° WSW 20:29:40 10° NNW
Cosmos 1300 4.2 20:23:03 10° NNE 20:25:57 21° ENE 20:28:51 10° SE
Cosmos 1943 Rocket 3.2 20:23:53 10° NW 20:29:16 47° WSW 20:34:35 10° S
OBJECT-B 3.4 20:27:20 10° SW 20:29:18 17° W 20:31:18 10° NW
Cosmos 1908 3.2 20:25:48 10° N 20:29:39 79° E 20:33:29 10° S
Cosmos 405 Rocket 3.8 20:30:12 10° SSW 20:34:04 52° WNW 20:38:01 10° N
Cosmos 1943 3.2 20:28:51 10° S 20:34:26 63° ESE 20:40:02 10° NNE
Sich 1 Rocket 4.2 20:30:57 10° NNW 20:35:29 63° W 20:40:00 10° S
Cosmos 1953 2.7 20:33:07 10° N 20:36:55 45° E 20:40:42 10° SSE
Cosmos 1603 3.8 20:32:51 10° S 20:38:25 60° ESE 20:44:03 10° NNE
Resurs 1-3 4.1 20:35:15 10° S 20:39:35 61° W 20:43:56 10° NNW
Lacrosse 5 4.4 20:37:54 10° NNW 20:40:37 14° NNE 20:43:19 10° NE
Cosmos 1745 Rocket 4.4 20:35:12 10° N 20:41:04 45° ENE 20:46:55 10° SSE
Cosmos 1975 Rocket 4.4 20:40:10 10° SE 20:43:36 22° E 20:47:02 10° NE
Intercosmos 25 4.0 20:43:08 10° NNW 20:46:14 43° W 20:49:25 10° SSW
Ariane Rocket 3.3 20:42:41 10° SSE 20:47:39 56° ENE 20:52:38 10° N
CARTOSAT-1 4.4 20:44:35 11° SE 20:48:22 35° ENE 20:52:18 10° N
H-2A R/B 2.3 20:45:26 10° N 20:49:48 77° WNW 20:54:14 10° SSW
X-37B 2.5 20:48:38 10° SSE 20:48:54 11° SSE 20:48:54 11° SSE
USA 308 3.2 20:47:29 10° NW 20:51:35 59° SW 20:55:11 13° SSE
USA 305 3.5 20:47:44 10° WNW 20:51:43 46° SW 20:55:21 12° SSE
Resurs 01 Rocket 1.6 20:47:38 10° SSE 20:52:04 86° ENE 20:56:32 10° NNW
Cosmos 292 Rocket 4.4 20:49:50 10° SSW 20:54:31 60° WNW 20:59:14 10° NNE
Lacrosse 4 Rocket 2.0 20:50:25 10° SW 20:54:32 60° WNW 20:58:36 10° NNE
Okean 2 Rocket 4.1 20:51:13 10° NNW 20:55:30 47° W 20:59:43 10° SSW
Tiangong 1.1 20:53:08 10° WSW 20:56:15 59° SSE 20:59:24 10° E
IRAS Rocket 4.3 20:50:49 10° NNE 20:56:23 61° ESE 21:01:52 10° S
Cosmos 2151 Rocket 4.5 20:54:40 10° NNW 20:59:02 50° W 21:03:23 10° SSW
DELTA 2 R/B (1) 3.6 20:53:40 10° W 20:59:16 75° S 21:04:45 11° ESE
FALCON 9 DEB 3.2 21:00:09 10° WSW 21:03:23 72° NW 21:06:39 10° NE
CZ-3 Stage 3 4.4 21:00:22 10° W 21:05:50 18° SW 21:08:17 10° S
Terra 3.4 21:02:52 12° ESE 21:05:54 22° ENE 21:09:30 10° NNE
Meteor 1-24 Rocket 4.3 21:06:09 14° SSE 21:10:01 34° E 21:14:48 10° NNE
Cosmos 2315 Rocket 4.4 21:05:12 11° SSE 21:11:06 47° E 21:17:07 10° NNE
USA 267 3.2 21:06:21 10° NE 21:12:51 64° SE 21:19:20 10° SW
Cosmos 1455 4.2 21:11:11 10° NE 21:13:23 15° ENE 21:14:42 13° E
Cosmos 2369 Rocket 2.8 21:09:06 10° NNW 21:14:34 55° WSW 21:19:53 11° S
Cosmos 1371 Rocket 4.5 21:11:06 12° SSE 21:15:35 40° ESE 21:20:28 10° NE
SL-24 R/B 4.0 21:12:36 15° SSE 21:16:03 83° E 21:20:26 10° N
Longmarch 3A Rocket 4.0 21:15:02 10° S 21:15:28 11° S 21:15:28 11° S
Spot 2 Rocket 4.0 21:15:27 18° SE 21:18:53 44° ENE 21:23:43 10° N
ERBS 2.2 21:16:53 10° NW 21:19:51 60° SW 21:21:15 27° SSE
ATLAS 3B CENTAUR R/B 4.4 21:09:17 10° W 21:21:21 36° SSW 21:27:49 18° SSE
ARIANE 5 R/B 4.1 21:23:37 17° ESE 21:25:49 24° ENE 21:29:23 10° NNE
SPOT 3 Rocket 3.5 21:22:41 17° SSE 21:26:40 82° ENE 21:31:53 10° NNW
Cosmos 2084 4.1 21:26:52 25° SE 21:27:19 26° ESE 21:30:33 10° ENE
Lacrosse 5 rocket 3.6 21:25:37 10° NNW 21:28:14 17° NNE 21:30:55 10° ENE
CZ-4B R/B 3.2 21:26:37 10° NNW 21:29:06 26° WNW 21:31:34 10° SW
Cosmos 1709 Rocket 4.0 21:24:45 10° N 21:30:55 69° E 21:35:24 20° SSE
Meteor 2-12 Rocket 4.4 21:25:40 10° N 21:31:46 90° WSW 21:36:41 16° S
Cosmos 2251 Rocket 3.8 21:27:00 10° NNW 21:32:20 69° WSW 21:36:18 18° S
Cosmos 1624 Rocket 4.0 21:32:53 14° S 21:37:18 59° ESE 21:42:26 10° NNE
ATLAS 2AS CENTAUR R/B 3.8 21:33:19 10° NNW 21:39:44 35° NE 21:44:51 14° ESE
GENESIS II 4.4 21:37:53 10° NNW 21:41:56 65° NE 21:43:39 32° SE
Cosmos 1190 Rocket 4.2 21:39:40 10° NNW 21:44:56 59° ENE 21:47:39 28° SE
USA 234 4.4 21:39:28 10° E 21:45:24 38° NNE 21:51:21 10° NW
NOSS 3-4 (A) 4.0 21:38:30 10° NW 21:45:40 77° WSW 21:51:03 23° SSE
NOSS 3-4 (C) 4.0 21:38:36 10° NW 21:45:45 78° WSW 21:51:05 23° SSE
USA 245 4.2 21:45:08 19° S 21:48:59 63° WSW 21:53:26 10° NNW
Meteor 2-10 Rocket 4.1 21:45:53 10° NNW 21:50:47 51° W 21:54:29 17° SSW
Atlas Centaur 2 3.1 21:47:58 10° SW 21:50:05 17° SSW 21:50:05 17° SSW
Cosmos 407 Rocket 3.5 21:46:54 10° NNW 21:52:06 80° WSW 21:54:51 28° S
Cosmos 1455 Rocket 3.1 21:48:08 10° N 21:52:30 78° W 21:54:41 28° S
SPOT 5 2.6 21:52:00 29° S 21:54:18 86° WSW 21:58:44 10° NNW
Cosmos 2056 Rocket 3.5 21:52:03 12° SSW 21:56:57 88° ESE 22:02:24 10° NNE
Meteor 2-5 Rocket 3.9 21:53:57 12° SSW 21:59:02 71° W 22:04:35 10° N
Cosmos 1025 Rocket 3.4 21:57:09 19° SSW 22:00:09 62° W 22:04:24 10° N
Cosmos 1271 Rocket 3.2 21:56:30 10° N 22:00:22 48° ENE 22:01:15 40° ESE
ERS-1 Rocket 3.0 22:04:36 30° S 22:07:07 76° WSW 22:12:10 10° NNW
USA 32 4.1 22:04:44 23° S 22:08:02 78° W 22:13:17 10° N
Cosmos 1420 Rocket 3.9 22:05:26 19° SSW 22:09:15 89° WNW 22:14:33 10° NNE
Cosmos 676 Rocket 4.2 22:06:09 10° NNW 22:11:26 60° ENE 22:13:24 37° SE
Cosmos 1607 4.0 22:08:14 10° SW 22:14:29 80° WNW 22:20:43 10° NNE
Cosmos 1536 Rocket 3.6 22:13:48 47° SE 22:14:41 58° E 22:18:56 10° NNE
Cosmos 1140 Rocket 4.3 22:10:28 10° NNW 22:15:24 44° WSW 22:17:57 25° SSW
CZ-2C R/B 4.3 22:16:34 10° N 22:21:06 56° WNW 22:23:59 21° SW
Helios 1A Rocket 3.9 22:19:57 28° SW 22:21:26 39° W 22:25:17 10° NNW
Lacrosse 5 3.1 22:20:19 10° NNW 22:24:59 35° NE 22:27:55 19° E
Cosmos 724 4.1 22:24:23 24° SSW 22:27:57 76° ESE 22:33:45 10° NE
SAR-Lupe-4 3.7 22:26:04 10° NNE 22:29:20 59° ENE 22:29:20 59° ENE
Cosmos 2184 Rocket 3.9 22:25:21 10° N 22:31:31 72° E 22:33:49 40° SSE
Cosmos 1954 Rocket 4.0 22:27:35 10° NNW 22:32:53 80° WSW 22:34:28 46° S
Tiangong 1.8 22:29:57 10° W 22:32:27 50° WNW 22:32:27 50° WNW
TSX-5 4.1 22:33:04 54° ESE 22:33:09 54° ESE 22:38:05 10° NE
Meteor 1-21 Rocket 4.4 22:35:49 44° SE 22:37:06 54° E 22:42:32 10° NNE
CSL-04 DEB 4.4 22:33:46 10° NNE 22:38:07 86° ESE 22:38:53 60° S
Cosmos 1703 3.0 22:38:48 81° ESE 22:38:52 82° E 22:42:44 10° N
Cosmos 2228 3.2 22:36:48 10° N 22:40:58 53° E 22:41:10 52° E
Terra 2.7 22:41:45 30° SW 22:43:23 40° W 22:47:52 10° NNW
Cosmos 1544 Rocket 4.5 22:39:32 10° NNW 22:43:36 41° W 22:44:45 33° SW
SAR-Lupe-1 4.2 22:41:35 10° N 22:45:08 69° WNW 22:45:12 69° W
DELTA 2 R/B (1) 4.1 22:40:13 10° W 22:45:23 39° SSW 22:45:29 39° SSW
ALOS 2 4.4 22:46:37 18° ENE 22:47:19 19° ENE 22:50:25 10° NNE
Cosmos 1455 3.3 22:45:30 10° NNW 22:48:57 34° W 22:49:28 32° WSW
Molniya-1 4.5 22:50:49 45° S 22:52:22 73° ESE 23:03:48 10° NE
Cosmos 1726 Rocket 4.4 22:49:36 10° N 22:53:34 35° ENE 22:53:36 35° ENE
USA 267 4.4 22:49:34 10° NE 22:55:39 43° NNW 23:01:45 10° W
Cosmos 1980 Rocket 4.3 22:52:06 10° N 22:56:00 18° NE 22:59:14 12° E
Cosmos 1331 Rocket 4.1 22:57:22 53° SE 22:57:49 55° ESE 23:03:00 10° NNE
RESURS DK-1 3.7 22:55:00 10° N 22:58:38 29° ENE 22:59:03 28° ENE
Cosmos 1452 Rocket 3.5 22:57:19 46° SSW 22:58:55 82° WNW 23:04:12 10° NNE
Cosmos 1697 Rocket 3.7 22:55:41 10° N 23:00:51 36° ENE 23:02:42 28° E
ARIANE 5 R/B 3.8 23:01:09 29° WSW 23:02:05 32° W 23:06:07 10° NNW
Spot 4 4.2 23:04:25 46° E 23:04:59 48° ENE 23:09:35 10° N
Lacrosse 5 rocket 1.4 23:03:42 10° NW 23:07:17 72° NW 23:07:17 72° NW
NOSS 2-1 (C) 4.1 23:02:59 10° NW 23:07:52 88° WSW 23:09:23 53° SSE
ADEOS Rocket 4.1 23:05:35 29° ESE 23:08:26 42° ENE 23:15:18 10° N
ASTEX 1 3.3 23:05:50 10° N 23:10:51 87° W 23:11:35 66° SSW
Cosmos 1110 Rocket 3.9 23:15:12 64° SSW 23:16:02 89° ESE 23:21:21 10° NNE
Meteor 2-1 Rocket 4.0 23:10:33 10° N 23:16:05 86° E 23:17:01 63° SSE
Cosmos 2058 Rocket 4.0 23:12:45 10° N 23:16:43 37° ENE 23:16:43 37° ENE
NOSS 2-1 (D) 4.2 23:13:19 10° NW 23:18:15 75° WSW 23:19:29 57° S
Cosmos 1892 Rocket 3.6 23:22:22 71° ENE 23:22:22 71° ENE 23:26:32 10° NNE
GP-B 3.0 23:18:43 10° N 23:23:05 86° NNE 23:23:05 86° NNE
Cosmos 1833 Rocket 2.6 23:26:16 56° SSW 23:27:31 84° WNW 23:33:10 10° NNE
Cosmos 1656 3.6 23:22:14 10° NNW 23:27:40 67° WSW 23:28:19 61° SSW
USA 234 3.2 23:26:11 50° SSE 23:28:04 76° SW 23:34:39 10° NW
ATLAS 2AS CENTAUR R/B 2.9 23:24:12 10° NW 23:30:57 54° WSW 23:32:16 47° SSW
Okean 1-7 Rocket 4.4 23:39:49 39° ENE 23:39:49 39° ENE 23:43:24 10° NNE
Cosmos 2082 Rocket 2.4 23:41:32 52° ESE 23:41:38 52° ESE 23:47:10 10° NNE
Cosmos 962 Rocket 4.4 23:37:10 10° N 23:43:23 80° W 23:44:40 58° SSW
Cosmos 1741 Rocket 4.3 23:41:56 10° NNW 23:47:05 52° WSW 23:47:22 51° WSW
BREEZE-M DEB (TANK) 4.2 23:40:35 10° WSW 23:54:29 75° NNW 23:58:22 10° NE
